| time (UTC) | temp C | wind direction | speed KPH | gust KPH | rain 1hr cm | rain 24hr cm | rain mn cm | humidity % | barometer mb |
| 20260505124505 | 1 | 329 | 8.0 | 16.1 | 0.00 | 0.33 | 0.05 | 93 | 1014.2 |
| 20260505123011 | 2 | 309 | 6.4 | 17.7 | 0.00 | 0.33 | 0.05 | 93 | 1014.1 |
| 20260505121526 | 2 | 318 | 8.0 | 16.1 | 0.00 | 0.33 | 0.05 | 93 | 1013.8 |
| 20260505120013 | 3 | 304 | 4.8 | 12.9 | 0.00 | 0.33 | 0.05 | 93 | 1014.0 |
| 20260505114516 | 3 | 286 | 4.8 | 14.5 | 0.00 | 0.33 | 0.05 | 93 | 1014.0 |
| 20260505113011 | 3 | 297 | 1.6 | 6.4 | 0.00 | 0.33 | 0.05 | 94 | 1013.8 |
| 20260505111512 | 3 | 217 | 1.6 | 11.3 | 0.00 | 0.33 | 0.05 | 94 | 1013.7 |
| 20260505101509 | 3 | 172 | 3.2 | 9.7 | 0.00 | 0.33 | 0.05 | 94 | 1013.3 |
| 20260505100026 | 3 | 166 | 4.8 | 9.7 | 0.00 | 0.33 | 0.05 | 94 | 1013.1 |
| 20260505094520 | 4 | 154 | 8.0 | 11.3 | 0.00 | 0.33 | 0.05 | 94 | 1013.1 |
| 20260505093029 | 3 | 198 | 3.2 | 9.7 | 0.00 | 0.33 | 0.05 | 94 | 1013.1 |
| 20260505091527 | 3 | 178 | 4.8 | 8.0 | 0.00 | 0.33 | 0.05 | 93 | 1013.3 |
| 20260505090008 | 3 | 149 | 0.0 | 3.2 | 0.00 | 0.33 | 0.05 | 93 | 1013.2 |
| 20260505084521 | 3 | 144 | 0.0 | 6.4 | 0.00 | 0.33 | 0.05 | 93 | 1013.3 |
| 20260505083032 | 4 | 70 | 0.0 | 3.2 | 0.00 | 0.33 | 0.05 | 93 | 1013.9 |
| 20260505081523 | 4 | 319 | 0.0 | 3.2 | 0.03 | 0.33 | 0.05 | 93 | 1014.2 |
| 20260505080034 | 4 | 319 | 0.0 | 3.2 | 0.03 | 0.33 | 0.05 | 93 | 1014.2 |
| 20260505074513 | 4 | 300 | 0.0 | 4.8 | 0.03 | 0.33 | 0.05 | 93 | 1014.6 |
| 20260505073019 | 4 | 314 | 3.2 | 6.4 | 0.03 | 0.33 | 0.05 | 93 | 1014.7 |
| 20260505071534 | 4 | 318 | 1.6 | 4.8 | 0.03 | 0.30 | 0.03 | 93 | 1014.6 |
| 20260505070006 | 4 | 289 | 0.0 | 3.2 | 0.03 | 0.30 | 0.03 | 93 | 1014.5 |
| 20260505064509 | 4 | 307 | 1.6 | 3.2 | 0.05 | 0.30 | 0.03 | 93 | 1014.8 |
| 20260505060022 | 4 | 295 | 0.0 | 3.2 | 0.03 | 0.28 | 0.00 | 92 | 1015.0 |
| 20260505053013 | 4 | 319 | 0.0 | 8.0 | 0.00 | 0.25 | 0.25 | 92 | 1015.0 |
| 20260505051532 | 4 | 334 | 1.6 | 6.4 | 0.00 | 0.25 | 0.25 | 92 | 1015.0 |
| 20260505040022 | 5 | 191 | 0.0 | 3.2 | 0.10 | 0.25 | 0.25 | 89 | 1014.5 |
| 20260505034525 | 5 | 265 | 0.0 | 6.4 | 0.18 | 0.25 | 0.25 | 90 | 1014.5 |
| 20260505033025 | 5 | 324 | 0.0 | 8.0 | 0.18 | 0.23 | 0.23 | 89 | 1014.8 |
| 20260505031524 | 5 | 320 | 1.6 | 4.8 | 0.15 | 0.20 | 0.20 | 88 | 1014.8 |
| 20260505030020 | 5 | 39 | 1.6 | 3.2 | 0.10 | 0.15 | 0.15 | 88 | 1014.5 |
| 20260505024523 | 6 | 309 | 3.2 | 6.4 | 0.03 | 0.08 | 0.08 | 86 | 1014.7 |
| 20260505023027 | 6 | 11 | 1.6 | 3.2 | 0.00 | 0.05 | 0.05 | 86 | 1014.4 |
| 20260505021527 | 6 | 319 | 0.0 | 0.0 | 0.05 | 0.05 | 0.05 | 84 | 1014.3 |
| 20260505020016 | 6 | 291 | 1.6 | 4.8 | 0.05 | 0.05 | 0.05 | 81 | 1014.3 |
| 20260505014523 | 6 | 306 | 1.6 | 6.4 | 0.05 | 0.05 | 0.05 | 79 | 1014.2 |
| 20260505013025 | 7 | 280 | 4.8 | 22.5 | 0.05 | 0.05 | 0.05 | 74 | 1014.2 |
| 20260505011528 | 8 | 320 | 4.8 | 17.7 | 0.00 | 0.00 | 0.00 | 65 | 1014.2 |
| 20260505010016 | 9 | 259 | 6.4 | 17.7 | 0.00 | 0.00 | 0.00 | 53 | 1013.9 |
| 20260505004520 | 10 | 308 | 9.7 | 16.1 | 0.00 | 0.00 | 0.00 | 51 | 1013.6 |
| 20260505003003 | 10 | 301 | 9.7 | 24.1 | 0.00 | 0.00 | 0.00 | 51 | 1013.1 |
| 20260505001508 | 10 | 305 | 6.4 | 19.3 | 0.00 | 0.00 | 0.00 | 48 | 1013.0 |
| 20260505000013 | 11 | 70 | 8.0 | 22.5 | 0.00 | 0.00 | 0.00 | 48 | 1013.0 |
| 20260504234515 | 12 | 305 | 4.8 | 9.7 | 0.00 | 0.00 | 0.00 | 40 | 1012.8 |
| 20260504231505 | 12 | 97 | 4.8 | 9.7 | 0.00 | 0.00 | 0.00 | 39 | 1012.7 |
| 20260504230011 | 12 | 325 | 1.6 | 14.5 | 0.00 | 0.00 | 0.00 | 37 | 1012.4 |
| 20260504223020 | 13 | 105 | 3.2 | 33.8 | 0.00 | 0.00 | 0.00 | 36 | 1012.8 |
| 20260504214519 | 17 | 269 | 1.6 | 14.5 | 0.00 | 0.00 | 0.00 | 24 | 1011.7 |
| 20260504213017 | 18 | 313 | 4.8 | 19.3 | 0.00 | 0.00 | 0.00 | 25 | 1011.7 |
| 20260504210011 | 18 | 303 | 4.8 | 20.9 | 0.00 | 0.00 | 0.00 | 28 | 1011.8 |
| 20260504204513 | 16 | 310 | 4.8 | 22.5 | 0.00 | 0.00 | 0.00 | 29 | 1012.0 |
| 20260504203018 | 17 | 296 | 11.3 | 20.9 | 0.00 | 0.00 | 0.00 | 27 | 1012.3 |
| 20260504200022 | 17 | 352 | 11.3 | 19.3 | 0.00 | 0.00 | 0.00 | 25 | 1012.3 |
| 20260504194512 | 16 | 35 | 4.8 | 19.3 | 0.00 | 0.00 | 0.00 | 23 | 1012.3 |
| 20260504193016 | 17 | 290 | 6.4 | 12.9 | 0.00 | 0.00 | 0.00 | 20 | 1012.4 |
| 20260504191521 | 17 | 219 | 3.2 | 19.3 | 0.00 | 0.00 | 0.00 | 19 | 1012.4 |
| 20260504190006 | 18 | 210 | 6.4 | 14.5 | 0.00 | 0.00 | 0.00 | 20 | 1012.4 |
| 20260504184513 | 16 | 138 | 3.2 | 9.7 | 0.00 | 0.00 | 0.00 | 21 | 1012.7 |